Location: *
(18.5200°S, 46.4500°E)
Time: 15:44:40
(UTC+00:00)

CZ-2C R/B - Pass Details

Date: 19 July 2019
Orbit: 641 x 704 km, 98.4° (Epoch: 20 August)

Event Time Altitude Azimuth Distance (km) Brightness Sun altitude
Rises 15:19:12 0° 20° (NNE) 3,075 7.1 -10.7°
Reaches altitude 10° 15:21:28 10° 23° (NNE) 2,162 6.3 -11.2°
Maximum altitude 15:26:08 62° 103° (ESE) 788 3.8 -12.2°
Drops below altitude 10° 15:30:50 10° 184° (S) 2,163 6.2 -13.3°
Sets 15:33:06 0° 187° (S) 3,078 7.0 -13.8°
